#timestamp,LO_Frequency,Hit,StdDev 
1544324415.7,286046996.5,N
1544324435.5,286047000.5,P
1544324455.4,286047000.5,N
1544324475.2,286047000.5,N
1544324495.0,286046999.0,N
1544324495.9,286046999.0,N
1544324515.8,286046996.5,N
1544324535.6,286046999.1,N
1544324585.5,286046998.3,E
1544324595.4,286046998.1,N
1544324615.2,286047002.1,P
1544324635.1,286047003.9,N
1544324636.0,286047003.9,N
1544324655.8,286047001.4,N
1544324675.7,286047001.7,N
1544324695.5,286047004.3,N
1544324715.3,286047002.7,N
1544324735.2,286047002.4,N
1544324755.0,286046998.1,N
1544324755.9,286046998.1,N
1544324775.8,286047000.4,N
1544324795.6,286047001.9,N
1544324815.4,286046999.7,N
1544324835.3,286046998.2,N
1544324855.1,286046999.8,N
1544324875.8,286047001.7,N
1544324895.7,286047002.6,N
1544324915.5,286047000.7,N
1544324935.4,286046998.9,N
1544324955.2,286046996.9,N
1544324975.0,286046997.0,N
1544324975.9,286046997.0,N
1544324995.8,286046998.8,N
1544325015.6,286047000.7,N
1544325035.4,286047000.0,N
1544325055.3,286047001.0,N
1544325075.1,286047000.0,N
1544325095.9,286046998.5,N
1544325115.7,286046999.5,N
1544325135.5,286047000.4,N
1544325155.4,286046999.9,N
1544325175.2,286047001.4,N
1544325195.1,286047001.5,N
1544325196.0,286047001.5,N
1544325215.8,286047002.7,N
1544325235.6,286047001.8,N
1544325255.5,286047002.8,N
1544325275.3,286047000.2,N
1544325295.1,286047000.6,N
1544325315.9,286047000.9,N
1544325335.7,286047002.4,N
1544325355.6,286047001.3,N
1544325375.4,286047001.3,N
1544325395.2,286047004.1,N
1544325415.1,286047004.2,N
1544325416.0,286047004.2,N
1544325435.8,286047011.9,Y
1544325455.7,286047004.1,P
1544325475.5,286046998.2,N
1544325495.3,286046998.2,N
1544325515.2,286046998.2,N
1544325535.0,286046998.2,N
1544325535.9,286046998.2,N
1544325555.7,286046998.5,N
1544325575.6,286047000.8,N
1544325595.4,286047000.0,N
1544325615.3,286047001.3,N
1544325635.1,286047004.3,N
1544325636.0,286047004.3,N
1544325655.8,286047001.3,N
1544325675.7,286046999.8,N
1544325695.5,286047002.2,N
1544325715.4,286047001.9,N
1544325735.2,286047001.3,N
1544325755.0,286047004.7,N
1544325755.9,286047004.7,N
1544325775.8,286047005.7,N
1544325795.6,286047003.3,N
1544325815.4,286047002.2,N
1544325835.3,286047000.9,N
1544325855.1,286046999.9,N
1544325875.9,286047000.1,N
1544325895.7,286047001.6,N
1544325915.5,286047000.1,N
1544325935.4,286047001.5,N
1544325955.2,286047004.3,N
1544325975.0,286047005.6,N
1544325975.9,286047005.6,N
1544325995.8,286047005.8,N
1544326015.6,286047005.7,N
1544326035.5,286047004.4,N
1544326055.3,286047002.4,N
1544326075.1,286047002.1,N
1544326095.9,286047001.4,N
1544326115.7,286047003.8,N
1544326135.5,286047003.9,N
1544326155.4,286047003.0,N
1544326175.2,286047005.3,N
1544326195.1,286047005.5,N
1544326196.0,286047005.5,N
1544326215.8,286047006.7,Y
1544326235.6,286047003.7,P
1544326255.5,286047003.4,P
1544326275.3,286047004.4,P
1544326295.2,286047002.1,Y
1544326315.9,286046998.5,P
1544326335.7,286046999.8,N
1544326355.6,286047000.5,N
1544326375.4,286047003.8,N
1544326395.2,286047003.7,N
1544326415.1,286047003.5,N
1544326416.0,286047003.5,N
1544326435.8,286047007.0,Y
1544326455.7,286047001.6,P
1544326475.5,286047000.8,N
1544326495.3,286047000.0,N
1544326515.2,286047001.0,N
1544326535.0,286047002.2,Y
1544326535.9,286047002.2,P
1544326555.8,286046999.9,N
1544326575.6,286046999.4,N
1544326595.4,286046996.7,Y
1544326615.3,286046994.9,P
1544326635.1,286046996.1,N
1544326655.9,286046998.3,N
1544326675.7,286046996.6,N
1544326695.5,286046995.5,N
1544326715.4,286046997.3,N
1544326735.2,286046995.4,N
1544326755.0,286046995.8,N
1544326756.0,286046995.8,N
1544326775.8,286046995.8,N
1544326795.6,286046995.2,Y
1544326815.5,286047000.5,P
1544326835.3,286046999.8,N
1544326855.1,286047002.0,N
1544326875.9,286047002.1,N
1544326895.7,286047002.3,N
1544326915.6,286046998.6,N
1544326935.4,286046999.6,N
1544326955.2,286046996.8,N
1544326975.1,286046999.0,N
1544326976.0,286046999.0,N
1544326995.8,286047001.5,N
1544327015.6,286047002.6,N
1544327035.5,286047001.6,N
1544327055.3,286047002.2,N
1544327075.2,286047003.8,N
1544327095.9,286047004.0,N
1544327115.7,286047001.4,N
1544327135.6,286047003.9,N
1544327155.4,286047002.3,N
1544327175.2,286047000.1,N
1544327195.1,286047005.1,N
1544327196.0,286047005.1,N
1544327215.8,286047005.8,N
1544327235.7,286047007.5,Y
1544327255.5,286047003.7,P
1544327275.3,286046999.8,N
1544327295.2,286047000.9,N
1544327315.0,286047002.4,N
1544327315.9,286047002.4,N
1544327335.8,286047000.0,N
1544327355.6,286047000.6,N
1544327375.4,286047000.7,N
1544327395.3,286047001.7,N
1544327415.1,286047003.6,Y
1544327435.8,286047001.9,P
1544327455.7,286047001.8,P
1544327475.5,286047003.4,P
1544327495.4,286047003.8,Y
1544327515.2,286047002.6,P
1544327535.0,286047005.7,P
1544327535.9,286047005.7,P
1544327555.8,286047001.5,N
1544327575.6,286047002.5,N
1544327595.5,286047011.9,Y
1544327615.3,286046993.8,P
1544327635.1,286046994.1,N
1544327655.9,286046993.6,N
1544327675.7,286046997.8,N
1544327695.5,286046996.9,N
1544327715.4,286046997.1,N
1544327735.2,286046999.5,N
1544327755.1,286046999.1,N
1544327756.0,286046999.1,N
1544327775.8,286047001.2,N
1544327795.6,286046996.6,N
1544327815.5,286046997.3,N
1544327835.3,286046998.4,N
1544327855.1,286046999.2,N
1544327875.9,286046999.0,N
1544327895.7,286047002.3,N
1544327915.6,286047002.3,N
1544327935.4,286047004.0,N
1544327955.2,286047003.8,N
1544327975.1,286047002.7,N
1544327976.0,286047002.7,N
1544327995.8,286047002.8,N
